HORS 4 (RS82S)

Last updated on Thu Sep 10 2026 00:03:13 GMT+0000 (Coordinated Universal Time)

1 61754U 24199V 26252.57322627 .00060596 00000+0 53037-3 0 9995 2 61754 97.2749 132.3005 0002318 356.4005 3.7239 15.68718793150830
UTC large
Height (km)
Speed (km/s)
/
Latitude / Longitude
Inclination (degrees)
Orbital Period (minutes)
Azimuth
Elevation
Range (km)
Doppler Factor

Next 0 passes for location: London (51.5072 / 0.1276)

No passes found over London.
HORS 4 (RS82S)